Weather History for Duncan, OK

Change the Weather History Date:

Saturday, October 5, 2013

  Actual Average (KLAW) Record (KLAW)
Temperature  
Mean Temperature 64 °F -  
Max Temperature 77 °F 79 °F 98 °F (1963)
Min Temperature 48 °F 55 °F 40 °F (1985)
Degree Days  
Heating Degree Days 2    
Growing Degree Days 14 (Base 50)    
Moisture  
Dew Point 44 °F    
Average Humidity 60    
Maximum Humidity 100    
Minimum Humidity 33    
Precipitation  
Precipitation 0.05 in - - ()
Sea Level Pressure  
Sea Level Pressure 30.06 in    
Wind  
Wind Speed 12 mph (North)    
Max Wind Speed 21 mph    
Max Gust Speed 29 mph    
Visibility 10 miles    
Events Rain    
Averages and records for this station are not official NWS values.
T = Trace of Precipitation, MM = Missing Value Source: NWS Daily Summary

Daily Weather History Graph

Daily Weather History Graph

Search for Another Location

Airport:

Trip Planner

Search our weather history database for the weather conditions in past years. The results will help you decide how hot, cold, wet, or windy it might be!

Date:

Astronomy

Oct. 05, 2013 Rise Set
Actual Time 7:29 AM CDT 7:10 PM CDT
Civil Twilight 7:04 AM CDT 7:35 PM CDT
Nautical Twilight 6:35 AM CDT 8:04 PM CDT
Astronomical Twilight 6:06 AM CDT 8:33 PM CDT
Moon 8:07 AM CDT (10/5) 7:34 PM CDT (10/5)
Length of Visible Light 12h 30m
Length of Day
11h 40m
New Moon, 1% of the Moon is Illuminated
Oct 5
New Moon
Oct 11
First Quarter
Oct 18
Full
Oct 26
Last Quarter
Nov 3
New

Hourly Weather History & Observations

Time (CDT) Temp. Dew Point Humidity Pressure Visibility Wind Dir Wind Speed Gust Speed Precip Events Conditions
12:15 AM 77.0 °F 68.0 °F 74% 29.87 in 10.0 mi NW 6.9 mph - N/A   Clear
12:35 AM 77.0 °F 68.0 °F 74% 29.87 in 10.0 mi SSE 9.2 mph - N/A   Scattered Clouds
12:55 AM 77.0 °F 68.0 °F 74% 29.88 in 10.0 mi NE 9.2 mph - N/A   Mostly Cloudy
1:15 AM 71.6 °F 64.4 °F 78% 29.90 in 10.0 mi NNE 13.8 mph 19.6 mph N/A   Overcast
1:35 AM 69.8 °F 64.4 °F 83% 29.90 in 10.0 mi NNE 15.0 mph - N/A   Overcast
1:55 AM 64.4 °F 62.6 °F 94% 29.93 in 10.0 mi North 18.4 mph 25.3 mph N/A   Overcast
2:15 AM 60.8 °F 60.8 °F 100% 29.97 in 10.0 mi NNW 16.1 mph 20.7 mph 0.03 in Rain Light Rain
2:35 AM 59.0 °F 55.4 °F 88% 29.95 in 10.0 mi NNE 20.7 mph 27.6 mph 0.05 in Rain Light Rain
2:55 AM 59.0 °F 55.4 °F 88% 29.96 in 10.0 mi North 13.8 mph 20.7 mph 0.05 in   Overcast
3:15 AM 55.4 °F 55.4 °F 100% 29.96 in 10.0 mi North 20.7 mph 27.6 mph N/A   Overcast
3:35 AM 53.6 °F 53.6 °F 100% 29.97 in 10.0 mi North 19.6 mph 28.8 mph N/A   Overcast
3:55 AM 53.6 °F 50.0 °F 88% 29.97 in 10.0 mi North 19.6 mph 26.5 mph N/A   Overcast
4:15 AM 53.6 °F 48.2 °F 82% 29.98 in 10.0 mi North 18.4 mph 26.5 mph N/A   Overcast
4:35 AM 53.6 °F 46.4 °F 77% 29.99 in 10.0 mi North 18.4 mph 25.3 mph N/A   Overcast
4:55 AM 53.6 °F 44.6 °F 72% 29.99 in 10.0 mi NNE 18.4 mph 27.6 mph N/A   Overcast
5:15 AM 53.6 °F 42.8 °F 67% 30.00 in 10.0 mi North 17.3 mph 24.2 mph N/A   Overcast
5:35 AM 55.4 °F 42.8 °F 63% 30.01 in 10.0 mi North 13.8 mph 24.2 mph N/A   Overcast
5:55 AM 55.4 °F 42.8 °F 63% 30.01 in 10.0 mi North 13.8 mph 26.5 mph N/A   Overcast
6:15 AM 55.4 °F 42.8 °F 63% 30.02 in 10.0 mi North 19.6 mph 27.6 mph N/A   Overcast
6:35 AM 53.6 °F 41.0 °F 62% 30.02 in 10.0 mi North 19.6 mph 25.3 mph N/A   Overcast
6:55 AM 53.6 °F 41.0 °F 62% 30.03 in 10.0 mi North 18.4 mph 25.3 mph N/A   Overcast
7:15 AM 53.6 °F 41.0 °F 62% 30.04 in 10.0 mi North 15.0 mph 26.5 mph N/A   Overcast
7:35 AM 53.6 °F 41.0 °F 62% 30.06 in 10.0 mi North 16.1 mph 25.3 mph N/A   Overcast
7:55 AM 53.6 °F 39.2 °F 58% 30.07 in 10.0 mi North 13.8 mph 24.2 mph N/A   Overcast
8:15 AM 53.6 °F 39.2 °F 58% 30.09 in 10.0 mi North 16.1 mph 21.9 mph N/A   Overcast
8:35 AM 53.6 °F 39.2 °F 58% 30.10 in 10.0 mi North 16.1 mph 23.0 mph N/A   Overcast
8:55 AM 53.6 °F 37.4 °F 54% 30.11 in 10.0 mi North 16.1 mph 26.5 mph N/A   Overcast
9:15 AM 53.6 °F 37.4 °F 54% 30.12 in 10.0 mi North 15.0 mph 27.6 mph N/A   Overcast
9:35 AM 53.6 °F 37.4 °F 54% 30.13 in 10.0 mi North 12.7 mph 20.7 mph N/A   Overcast
9:55 AM 53.6 °F 39.2 °F 58% 30.12 in 10.0 mi North 12.7 mph 19.6 mph N/A   Overcast
10:15 AM 53.6 °F 37.4 °F 54% 30.13 in 10.0 mi North 15.0 mph 23.0 mph N/A   Overcast
10:35 AM 55.4 °F 37.4 °F 51% 30.14 in 10.0 mi North 12.7 mph 18.4 mph N/A   Mostly Cloudy
10:55 AM 55.4 °F 37.4 °F 51% 30.12 in 10.0 mi North 13.8 mph 18.4 mph N/A   Mostly Cloudy
11:15 AM 57.2 °F 37.4 °F 48% 30.13 in 10.0 mi North 16.1 mph - N/A   Mostly Cloudy
11:35 AM 59.0 °F 37.4 °F 45% 30.13 in 10.0 mi NNE 15.0 mph 24.2 mph N/A   Mostly Cloudy
11:55 AM 60.8 °F 37.4 °F 42% 30.12 in 10.0 mi North 12.7 mph 19.6 mph N/A   Scattered Clouds
12:15 PM 62.6 °F 35.6 °F 37% 30.14 in 10.0 mi NNE 13.8 mph 20.7 mph N/A   Scattered Clouds
12:35 PM 60.8 °F 35.6 °F 39% 30.13 in 10.0 mi North 12.7 mph 20.7 mph N/A   Scattered Clouds
12:55 PM 60.8 °F 35.6 °F 39% 30.12 in 10.0 mi NNE 12.7 mph 18.4 mph N/A   Scattered Clouds
1:15 PM 64.4 °F 37.4 °F 37% 30.11 in 10.0 mi North 11.5 mph 18.4 mph N/A   Clear
1:35 PM 64.4 °F 37.4 °F 37% 30.09 in 10.0 mi North 15.0 mph 20.7 mph N/A   Clear
1:55 PM 66.2 °F 37.4 °F 35% 30.09 in 10.0 mi North 12.7 mph 19.6 mph N/A   Clear
2:15 PM 66.2 °F 39.2 °F 37% 30.09 in 10.0 mi NNE 12.7 mph 17.3 mph N/A   Scattered Clouds
2:35 PM 68.0 °F 39.2 °F 35% 30.08 in 10.0 mi North 11.5 mph 19.6 mph N/A   Scattered Clouds
2:55 PM 68.0 °F 39.2 °F 35% 30.08 in 10.0 mi NNE 9.2 mph - N/A   Clear
3:15 PM 68.0 °F 41.0 °F 37% 30.07 in 10.0 mi North 11.5 mph 16.1 mph N/A   Clear
3:35 PM 68.0 °F 39.2 °F 35% 30.08 in 10.0 mi North 11.5 mph 17.3 mph N/A   Clear
3:55 PM 68.0 °F 39.2 °F 35% 30.08 in 10.0 mi North 13.8 mph 19.6 mph N/A   Clear
4:15 PM 68.0 °F 37.4 °F 33% 30.07 in 10.0 mi North 13.8 mph 21.9 mph N/A   Clear
4:35 PM 68.0 °F 37.4 °F 33% 30.07 in 10.0 mi North 9.2 mph - N/A   Clear
4:55 PM 66.2 °F 39.2 °F 37% 30.06 in 10.0 mi North 10.4 mph - N/A   Clear
5:15 PM 68.0 °F 39.2 °F 35% 30.06 in 10.0 mi North 10.4 mph - N/A   Clear
5:35 PM 66.2 °F 39.2 °F 37% 30.06 in 10.0 mi North 8.1 mph - N/A   Clear
5:55 PM 64.4 °F 39.2 °F 40% 30.06 in 10.0 mi NNE 8.1 mph - N/A   Clear
6:15 PM 64.4 °F 39.2 °F 40% 30.07 in 10.0 mi North 8.1 mph - N/A   Clear
6:35 PM 62.6 °F 41.0 °F 45% 30.08 in 10.0 mi NNE 3.5 mph - N/A   Clear
6:55 PM 62.6 °F 41.0 °F 45% 30.09 in 10.0 mi Calm Calm - N/A   Clear
7:15 PM 60.8 °F 41.0 °F 48% 30.09 in 10.0 mi Calm Calm - N/A   Clear
7:35 PM 60.8 °F 41.0 °F 48% 30.09 in 10.0 mi Calm Calm - N/A   Clear
7:55 PM 59.0 °F 42.8 °F 55% 30.09 in 10.0 mi Calm Calm - N/A   Clear
8:15 PM 57.2 °F 42.8 °F 59% 30.09 in 10.0 mi Calm Calm - N/A   Clear
8:35 PM 57.2 °F 42.8 °F 59% 30.09 in 10.0 mi Calm Calm - N/A   Clear
8:55 PM 55.4 °F 44.6 °F 67% 30.10 in 10.0 mi Calm Calm - N/A   Clear
9:15 PM 55.4 °F 46.4 °F 72% 30.11 in 10.0 mi Calm Calm - N/A   Clear
9:35 PM 53.6 °F 44.6 °F 72% 30.11 in 10.0 mi Calm Calm - N/A   Clear
9:55 PM 51.8 °F 46.4 °F 82% 30.11 in 10.0 mi Calm Calm - N/A   Clear
10:15 PM 51.8 °F 44.6 °F 76% 30.11 in 10.0 mi Calm Calm - N/A   Clear
10:35 PM 51.8 °F 44.6 °F 76% 30.11 in 10.0 mi Calm Calm - N/A   Clear
10:55 PM 51.8 °F 46.4 °F 82% 30.11 in 10.0 mi Calm Calm - N/A   Clear
11:15 PM 50.0 °F 46.4 °F 87% 30.11 in 10.0 mi Calm Calm - N/A   Clear
11:35 PM 50.0 °F 46.4 °F 87% 30.11 in 10.0 mi Calm Calm - N/A   Clear
11:55 PM 48.2 °F 44.6 °F 87% 30.11 in 10.0 mi Calm Calm - N/A   Clear